Index of /20260502/WXO-DD/model_rdps/10km/00/059
Name Last modified Size Description
Parent Directory -
20260502T00Z_MSC_RDPS_AbsoluteVorticity_IsbL-0250_RLatLon0.09_PT059H.grib2 2026-05-02 02:56 620K
20260502T00Z_MSC_RDPS_AbsoluteVorticity_IsbL-0500_RLatLon0.09_PT059H.grib2 2026-05-02 02:56 573K
20260502T00Z_MSC_RDPS_AbsoluteVorticity_IsbL-0700_RLatLon0.09_PT059H.grib2 2026-05-02 02:56 623K
20260502T00Z_MSC_RDPS_AbsoluteVorticity_IsbL-0850_RLatLon0.09_PT059H.grib2 2026-05-02 02:56 799K
20260502T00Z_MSC_RDPS_AirTemp_AGL-120m_RLatLon0.09_PT059H.grib2 2026-05-02 02:56 381K
20260502T00Z_MSC_RDPS_AirTemp_AGL-2m_RLatLon0.09_PT059H.grib2 2026-05-02 02:56 641K
20260502T00Z_MSC_RDPS_AirTemp_AGL-40m_RLatLon0.09_PT059H.grib2 2026-05-02 02:56 413K
20260502T00Z_MSC_RDPS_AirTemp_AGL-80m_RLatLon0.09_PT059H.grib2 2026-05-02 02:56 388K
20260502T00Z_MSC_RDPS_AirTemp_IsbL-0001_RLatLon0.09_PT059H.grib2 2026-05-02 02:56 234K
20260502T00Z_MSC_RDPS_AirTemp_IsbL-0005_RLatLon0.09_PT059H.grib2 2026-05-02 02:56 291K
20260502T00Z_MSC_RDPS_AirTemp_IsbL-0010_RLatLon0.09_PT059H.grib2 2026-05-02 02:56 303K
20260502T00Z_MSC_RDPS_AirTemp_IsbL-0020_RLatLon0.09_PT059H.grib2 2026-05-02 02:56 420K
20260502T00Z_MSC_RDPS_AirTemp_IsbL-0030_RLatLon0.09_PT059H.grib2 2026-05-02 02:56 342K
20260502T00Z_MSC_RDPS_AirTemp_IsbL-0050_RLatLon0.09_PT059H.grib2 2026-05-02 02:56 322K
20260502T00Z_MSC_RDPS_AirTemp_IsbL-0100_RLatLon0.09_PT059H.grib2 2026-05-02 02:56 430K
20260502T00Z_MSC_RDPS_AirTemp_IsbL-0150_RLatLon0.09_PT059H.grib2 2026-05-02 02:56 421K
20260502T00Z_MSC_RDPS_AirTemp_IsbL-0175_RLatLon0.09_PT059H.grib2 2026-05-02 02:56 408K
20260502T00Z_MSC_RDPS_AirTemp_IsbL-0200_RLatLon0.09_PT059H.grib2 2026-05-02 02:56 413K
20260502T00Z_MSC_RDPS_AirTemp_IsbL-0225_RLatLon0.09_PT059H.grib2 2026-05-02 02:56 421K
20260502T00Z_MSC_RDPS_AirTemp_IsbL-0250_RLatLon0.09_PT059H.grib2 2026-05-02 02:56 427K
20260502T00Z_MSC_RDPS_AirTemp_IsbL-0275_RLatLon0.09_PT059H.grib2 2026-05-02 02:56 407K
20260502T00Z_MSC_RDPS_AirTemp_IsbL-0300_RLatLon0.09_PT059H.grib2 2026-05-02 02:56 413K
20260502T00Z_MSC_RDPS_AirTemp_IsbL-0350_RLatLon0.09_PT059H.grib2 2026-05-02 02:56 429K
20260502T00Z_MSC_RDPS_AirTemp_IsbL-0400_RLatLon0.09_PT059H.grib2 2026-05-02 02:56 431K
20260502T00Z_MSC_RDPS_AirTemp_IsbL-0450_RLatLon0.09_PT059H.grib2 2026-05-02 02:56 439K
20260502T00Z_MSC_RDPS_AirTemp_IsbL-0500_RLatLon0.09_PT059H.grib2 2026-05-02 02:56 414K
20260502T00Z_MSC_RDPS_AirTemp_IsbL-0550_RLatLon0.09_PT059H.grib2 2026-05-02 02:56 466K
20260502T00Z_MSC_RDPS_AirTemp_IsbL-0600_RLatLon0.09_PT059H.grib2 2026-05-02 02:56 447K
20260502T00Z_MSC_RDPS_AirTemp_IsbL-0650_RLatLon0.09_PT059H.grib2 2026-05-02 02:56 462K
20260502T00Z_MSC_RDPS_AirTemp_IsbL-0700_RLatLon0.09_PT059H.grib2 2026-05-02 02:56 486K
20260502T00Z_MSC_RDPS_AirTemp_IsbL-0750_RLatLon0.09_PT059H.grib2 2026-05-02 02:56 525K
20260502T00Z_MSC_RDPS_AirTemp_IsbL-0800_RLatLon0.09_PT059H.grib2 2026-05-02 02:56 585K
20260502T00Z_MSC_RDPS_AirTemp_IsbL-0850_RLatLon0.09_PT059H.grib2 2026-05-02 02:56 650K
20260502T00Z_MSC_RDPS_AirTemp_IsbL-0875_RLatLon0.09_PT059H.grib2 2026-05-02 02:56 668K
20260502T00Z_MSC_RDPS_AirTemp_IsbL-0900_RLatLon0.09_PT059H.grib2 2026-05-02 02:56 672K
20260502T00Z_MSC_RDPS_AirTemp_IsbL-0925_RLatLon0.09_PT059H.grib2 2026-05-02 02:56 529K
20260502T00Z_MSC_RDPS_AirTemp_IsbL-0950_RLatLon0.09_PT059H.grib2 2026-05-02 02:56 528K
20260502T00Z_MSC_RDPS_AirTemp_IsbL-0970_RLatLon0.09_PT059H.grib2 2026-05-02 02:56 521K
20260502T00Z_MSC_RDPS_AirTemp_IsbL-0985_RLatLon0.09_PT059H.grib2 2026-05-02 02:56 509K
20260502T00Z_MSC_RDPS_AirTemp_IsbL-1000_RLatLon0.09_PT059H.grib2 2026-05-02 02:56 497K
20260502T00Z_MSC_RDPS_AirTemp_IsbL-1015_RLatLon0.09_PT059H.grib2 2026-05-02 02:56 499K
20260502T00Z_MSC_RDPS_Albedo_Sfc_RLatLon0.09_PT059H.grib2 2026-05-02 02:56 153K
20260502T00Z_MSC_RDPS_CAPE_Sfc_RLatLon0.09_PT059H.grib2 2026-05-02 02:56 1.6M
20260502T00Z_MSC_RDPS_CIN_Sfc_RLatLon0.09_PT059H.grib2 2026-05-02 02:56 1.1M
20260502T00Z_MSC_RDPS_CloudWater_EAtm_RLatLon0.09_PT059H.grib2 2026-05-02 02:56 223K
20260502T00Z_MSC_RDPS_ConvectivePrecip-Accum_Sfc_RLatLon0.09_PT059H.grib2 2026-05-02 02:56 1.2M
20260502T00Z_MSC_RDPS_DewPointDepression_AGL-2m_RLatLon0.09_PT059H.grib2 2026-05-02 02:56 399K
20260502T00Z_MSC_RDPS_DewPointDepression_IsbL-0001_RLatLon0.09_PT059H.grib2 2026-05-02 02:56 193
20260502T00Z_MSC_RDPS_DewPointDepression_IsbL-0005_RLatLon0.09_PT059H.grib2 2026-05-02 02:56 193
20260502T00Z_MSC_RDPS_DewPointDepression_IsbL-0010_RLatLon0.09_PT059H.grib2 2026-05-02 02:56 193
20260502T00Z_MSC_RDPS_DewPointDepression_IsbL-0020_RLatLon0.09_PT059H.grib2 2026-05-02 02:56 193
20260502T00Z_MSC_RDPS_DewPointDepression_IsbL-0030_RLatLon0.09_PT059H.grib2 2026-05-02 02:56 193
20260502T00Z_MSC_RDPS_DewPointDepression_IsbL-0050_RLatLon0.09_PT059H.grib2 2026-05-02 02:56 79K
20260502T00Z_MSC_RDPS_DewPointDepression_IsbL-0100_RLatLon0.09_PT059H.grib2 2026-05-02 02:56 116K
20260502T00Z_MSC_RDPS_DewPointDepression_IsbL-0150_RLatLon0.09_PT059H.grib2 2026-05-02 02:56 141K
20260502T00Z_MSC_RDPS_DewPointDepression_IsbL-0175_RLatLon0.09_PT059H.grib2 2026-05-02 02:56 173K
20260502T00Z_MSC_RDPS_DewPointDepression_IsbL-0200_RLatLon0.09_PT059H.grib2 2026-05-02 02:56 215K
20260502T00Z_MSC_RDPS_DewPointDepression_IsbL-0225_RLatLon0.09_PT059H.grib2 2026-05-02 02:56 262K
20260502T00Z_MSC_RDPS_DewPointDepression_IsbL-0250_RLatLon0.09_PT059H.grib2 2026-05-02 02:56 301K
20260502T00Z_MSC_RDPS_DewPointDepression_IsbL-0275_RLatLon0.09_PT059H.grib2 2026-05-02 02:56 310K
20260502T00Z_MSC_RDPS_DewPointDepression_IsbL-0300_RLatLon0.09_PT059H.grib2 2026-05-02 02:56 328K
20260502T00Z_MSC_RDPS_DewPointDepression_IsbL-0350_RLatLon0.09_PT059H.grib2 2026-05-02 02:56 332K
20260502T00Z_MSC_RDPS_DewPointDepression_IsbL-0400_RLatLon0.09_PT059H.grib2 2026-05-02 02:56 342K
20260502T00Z_MSC_RDPS_DewPointDepression_IsbL-0450_RLatLon0.09_PT059H.grib2 2026-05-02 02:56 345K
20260502T00Z_MSC_RDPS_DewPointDepression_IsbL-0500_RLatLon0.09_PT059H.grib2 2026-05-02 02:56 346K
20260502T00Z_MSC_RDPS_DewPointDepression_IsbL-0550_RLatLon0.09_PT059H.grib2 2026-05-02 02:56 355K
20260502T00Z_MSC_RDPS_DewPointDepression_IsbL-0600_RLatLon0.09_PT059H.grib2 2026-05-02 02:56 369K
20260502T00Z_MSC_RDPS_DewPointDepression_IsbL-0650_RLatLon0.09_PT059H.grib2 2026-05-02 02:56 377K
20260502T00Z_MSC_RDPS_DewPointDepression_IsbL-0700_RLatLon0.09_PT059H.grib2 2026-05-02 02:56 387K
20260502T00Z_MSC_RDPS_DewPointDepression_IsbL-0750_RLatLon0.09_PT059H.grib2 2026-05-02 02:56 404K
20260502T00Z_MSC_RDPS_DewPointDepression_IsbL-0800_RLatLon0.09_PT059H.grib2 2026-05-02 02:56 444K
20260502T00Z_MSC_RDPS_DewPointDepression_IsbL-0850_RLatLon0.09_PT059H.grib2 2026-05-02 02:56 482K
20260502T00Z_MSC_RDPS_DewPointDepression_IsbL-0875_RLatLon0.09_PT059H.grib2 2026-05-02 02:56 477K
20260502T00Z_MSC_RDPS_DewPointDepression_IsbL-0900_RLatLon0.09_PT059H.grib2 2026-05-02 02:56 461K
20260502T00Z_MSC_RDPS_DewPointDepression_IsbL-0925_RLatLon0.09_PT059H.grib2 2026-05-02 02:56 445K
20260502T00Z_MSC_RDPS_DewPointDepression_IsbL-0950_RLatLon0.09_PT059H.grib2 2026-05-02 02:56 440K
20260502T00Z_MSC_RDPS_DewPointDepression_IsbL-0970_RLatLon0.09_PT059H.grib2 2026-05-02 02:56 437K
20260502T00Z_MSC_RDPS_DewPointDepression_IsbL-0985_RLatLon0.09_PT059H.grib2 2026-05-02 02:56 432K
20260502T00Z_MSC_RDPS_DewPointDepression_IsbL-1000_RLatLon0.09_PT059H.grib2 2026-05-02 02:56 430K
20260502T00Z_MSC_RDPS_DewPointDepression_IsbL-1015_RLatLon0.09_PT059H.grib2 2026-05-02 02:56 422K
20260502T00Z_MSC_RDPS_DewPoint_AGL-2m_RLatLon0.09_PT059H.grib2 2026-05-02 02:56 311K
20260502T00Z_MSC_RDPS_DownwardLongwaveRadiationFlux-Accum_Sfc_RLatLon0.09_PT059H.grib2 2026-05-02 02:56 405K
20260502T00Z_MSC_RDPS_DownwardShortwaveRadiationFlux-Accum_NTAtm_RLatLon0.09_PT059H.grib2 2026-05-02 02:56 146K
20260502T00Z_MSC_RDPS_DownwardShortwaveRadiationFlux-Accum_Sfc_RLatLon0.09_PT059H.grib2 2026-05-02 02:56 574K
20260502T00Z_MSC_RDPS_FreezingRain-Accum1h_Sfc_RLatLon0.09_PT059H.grib2 2026-05-02 02:56 49K
20260502T00Z_MSC_RDPS_FreezingRain-Accum_Sfc_RLatLon0.09_PT059H.grib2 2026-05-02 02:56 182K
20260502T00Z_MSC_RDPS_GeopotentialHeight_IsbL-0001_RLatLon0.09_PT059H.grib2 2026-05-02 02:56 318K
20260502T00Z_MSC_RDPS_GeopotentialHeight_IsbL-0005_RLatLon0.09_PT059H.grib2 2026-05-02 02:56 311K
20260502T00Z_MSC_RDPS_GeopotentialHeight_IsbL-0010_RLatLon0.09_PT059H.grib2 2026-05-02 02:56 312K
20260502T00Z_MSC_RDPS_GeopotentialHeight_IsbL-0020_RLatLon0.09_PT059H.grib2 2026-05-02 02:56 410K
20260502T00Z_MSC_RDPS_GeopotentialHeight_IsbL-0030_RLatLon0.09_PT059H.grib2 2026-05-02 02:56 413K
20260502T00Z_MSC_RDPS_GeopotentialHeight_IsbL-0050_RLatLon0.09_PT059H.grib2 2026-05-02 02:56 317K
20260502T00Z_MSC_RDPS_GeopotentialHeight_IsbL-0100_RLatLon0.09_PT059H.grib2 2026-05-02 02:56 292K
20260502T00Z_MSC_RDPS_GeopotentialHeight_IsbL-0150_RLatLon0.09_PT059H.grib2 2026-05-02 02:56 233K
20260502T00Z_MSC_RDPS_GeopotentialHeight_IsbL-0175_RLatLon0.09_PT059H.grib2 2026-05-02 02:56 236K
20260502T00Z_MSC_RDPS_GeopotentialHeight_IsbL-0200_RLatLon0.09_PT059H.grib2 2026-05-02 02:56 238K
20260502T00Z_MSC_RDPS_GeopotentialHeight_IsbL-0225_RLatLon0.09_PT059H.grib2 2026-05-02 02:56 240K
20260502T00Z_MSC_RDPS_GeopotentialHeight_IsbL-0250_RLatLon0.09_PT059H.grib2 2026-05-02 02:56 241K
20260502T00Z_MSC_RDPS_GeopotentialHeight_IsbL-0275_RLatLon0.09_PT059H.grib2 2026-05-02 02:56 240K
20260502T00Z_MSC_RDPS_GeopotentialHeight_IsbL-0300_RLatLon0.09_PT059H.grib2 2026-05-02 02:56 239K
20260502T00Z_MSC_RDPS_GeopotentialHeight_IsbL-0350_RLatLon0.09_PT059H.grib2 2026-05-02 02:56 235K
20260502T00Z_MSC_RDPS_GeopotentialHeight_IsbL-0400_RLatLon0.09_PT059H.grib2 2026-05-02 02:56 306K
20260502T00Z_MSC_RDPS_GeopotentialHeight_IsbL-0450_RLatLon0.09_PT059H.grib2 2026-05-02 02:56 302K
20260502T00Z_MSC_RDPS_GeopotentialHeight_IsbL-0500_RLatLon0.09_PT059H.grib2 2026-05-02 02:56 297K
20260502T00Z_MSC_RDPS_GeopotentialHeight_IsbL-0550_RLatLon0.09_PT059H.grib2 2026-05-02 02:56 293K
20260502T00Z_MSC_RDPS_GeopotentialHeight_IsbL-0600_RLatLon0.09_PT059H.grib2 2026-05-02 02:56 289K
20260502T00Z_MSC_RDPS_GeopotentialHeight_IsbL-0650_RLatLon0.09_PT059H.grib2 2026-05-02 02:56 258K
20260502T00Z_MSC_RDPS_GeopotentialHeight_IsbL-0700_RLatLon0.09_PT059H.grib2 2026-05-02 02:56 258K
20260502T00Z_MSC_RDPS_GeopotentialHeight_IsbL-0750_RLatLon0.09_PT059H.grib2 2026-05-02 02:56 344K
20260502T00Z_MSC_RDPS_GeopotentialHeight_IsbL-0800_RLatLon0.09_PT059H.grib2 2026-05-02 02:56 354K
20260502T00Z_MSC_RDPS_GeopotentialHeight_IsbL-0850_RLatLon0.09_PT059H.grib2 2026-05-02 02:56 365K
20260502T00Z_MSC_RDPS_GeopotentialHeight_IsbL-0875_RLatLon0.09_PT059H.grib2 2026-05-02 02:56 368K
20260502T00Z_MSC_RDPS_GeopotentialHeight_IsbL-0900_RLatLon0.09_PT059H.grib2 2026-05-02 02:56 371K
20260502T00Z_MSC_RDPS_GeopotentialHeight_IsbL-0925_RLatLon0.09_PT059H.grib2 2026-05-02 02:56 373K
20260502T00Z_MSC_RDPS_GeopotentialHeight_IsbL-0950_RLatLon0.09_PT059H.grib2 2026-05-02 02:56 376K
20260502T00Z_MSC_RDPS_GeopotentialHeight_IsbL-0970_RLatLon0.09_PT059H.grib2 2026-05-02 02:56 380K
20260502T00Z_MSC_RDPS_GeopotentialHeight_IsbL-0985_RLatLon0.09_PT059H.grib2 2026-05-02 02:56 297K
20260502T00Z_MSC_RDPS_GeopotentialHeight_IsbL-1000_RLatLon0.09_PT059H.grib2 2026-05-02 02:56 307K
20260502T00Z_MSC_RDPS_GeopotentialHeight_IsbL-1015_RLatLon0.09_PT059H.grib2 2026-05-02 02:56 318K
20260502T00Z_MSC_RDPS_Humidex_Sfc_RLatLon0.09_PT059H.grib2 2026-05-02 02:56 2.4M
20260502T00Z_MSC_RDPS_IcePellets-Accum1h_Sfc_RLatLon0.09_PT059H.grib2 2026-05-02 02:56 4.7K
20260502T00Z_MSC_RDPS_IcePellets-Accum_Sfc_RLatLon0.09_PT059H.grib2 2026-05-02 02:56 23K
20260502T00Z_MSC_RDPS_KIndex_Sfc_RLatLon0.09_PT059H.grib2 2026-05-02 02:56 2.5M
20260502T00Z_MSC_RDPS_LatentHeatNetFlux_Sfc_RLatLon0.09_PT059H.grib2 2026-05-02 02:56 429K
20260502T00Z_MSC_RDPS_LiftedIndex-MU-VT_IsbL-0500_RLatLon0.09_PT059H.grib2 2026-05-02 02:56 2.4M
20260502T00Z_MSC_RDPS_NetLongwaveRadiationFlux-Accum_Sfc_RLatLon0.09_PT059H.grib2 2026-05-02 02:56 583K
20260502T00Z_MSC_RDPS_NetShortwaveRadiationFlux-Accum_Sfc_RLatLon0.09_PT059H.grib2 2026-05-02 02:56 576K
20260502T00Z_MSC_RDPS_PlanetaryBoundaryLayerHeight_Sfc_RLatLon0.09_PT059H.grib2 2026-05-02 02:56 1.1M
20260502T00Z_MSC_RDPS_Precip-Accum1h_Sfc_RLatLon0.09_PT059H.grib2 2026-05-02 02:56 1.3M
20260502T00Z_MSC_RDPS_Precip-Accum_Sfc_RLatLon0.09_PT059H.grib2 2026-05-02 02:56 2.2M
20260502T00Z_MSC_RDPS_PrecipRate_Sfc_RLatLon0.09_PT059H.grib2 2026-05-02 02:56 202K
20260502T00Z_MSC_RDPS_PrecipType-Instant_Sfc_RLatLon0.09_PT059H.grib2 2026-05-02 02:56 639K
20260502T00Z_MSC_RDPS_Pressure-Trend3h_Sfc_RLatLon0.09_PT059H.grib2 2026-05-02 02:56 1.2M
20260502T00Z_MSC_RDPS_Pressure_MSL_RLatLon0.09_PT059H.grib2 2026-05-02 02:56 330K
20260502T00Z_MSC_RDPS_Pressure_PVU-1.5_RLatLon0.09_PT059H.grib2 2026-05-02 02:56 2.3M
20260502T00Z_MSC_RDPS_Pressure_PVU-1_RLatLon0.09_PT059H.grib2 2026-05-02 02:56 2.4M
20260502T00Z_MSC_RDPS_Pressure_PVU-2_RLatLon0.09_PT059H.grib2 2026-05-02 02:56 2.4M
20260502T00Z_MSC_RDPS_Pressure_Sfc_RLatLon0.09_PT059H.grib2 2026-05-02 02:56 500K
20260502T00Z_MSC_RDPS_RadiativeTemp_Sfc_RLatLon0.09_PT059H.grib2 2026-05-02 02:56 304K
20260502T00Z_MSC_RDPS_Rain-Accum1h_Sfc_RLatLon0.09_PT059H.grib2 2026-05-02 02:56 669K
20260502T00Z_MSC_RDPS_Rain-Accum_Sfc_RLatLon0.09_PT059H.grib2 2026-05-02 02:56 1.8M
20260502T00Z_MSC_RDPS_RelativeHumidity_AGL-2m_RLatLon0.09_PT059H.grib2 2026-05-02 02:56 1.0M
20260502T00Z_MSC_RDPS_RelativeHumidity_IsbL-0010_RLatLon0.09_PT059H.grib2 2026-05-02 02:56 588K
20260502T00Z_MSC_RDPS_RelativeHumidity_IsbL-0020_RLatLon0.09_PT059H.grib2 2026-05-02 02:56 661K
20260502T00Z_MSC_RDPS_RelativeHumidity_IsbL-0030_RLatLon0.09_PT059H.grib2 2026-05-02 02:56 605K
20260502T00Z_MSC_RDPS_RelativeHumidity_IsbL-0050_RLatLon0.09_PT059H.grib2 2026-05-02 02:56 363K
20260502T00Z_MSC_RDPS_RelativeHumidity_IsbL-0100_RLatLon0.09_PT059H.grib2 2026-05-02 02:56 279K
20260502T00Z_MSC_RDPS_RelativeHumidity_IsbL-0150_RLatLon0.09_PT059H.grib2 2026-05-02 02:56 406K
20260502T00Z_MSC_RDPS_RelativeHumidity_IsbL-0175_RLatLon0.09_PT059H.grib2 2026-05-02 02:56 465K
20260502T00Z_MSC_RDPS_RelativeHumidity_IsbL-0200_RLatLon0.09_PT059H.grib2 2026-05-02 02:56 540K
20260502T00Z_MSC_RDPS_RelativeHumidity_IsbL-0225_RLatLon0.09_PT059H.grib2 2026-05-02 02:56 619K
20260502T00Z_MSC_RDPS_RelativeHumidity_IsbL-0250_RLatLon0.09_PT059H.grib2 2026-05-02 02:56 689K
20260502T00Z_MSC_RDPS_RelativeHumidity_IsbL-0275_RLatLon0.09_PT059H.grib2 2026-05-02 02:56 714K
20260502T00Z_MSC_RDPS_RelativeHumidity_IsbL-0300_RLatLon0.09_PT059H.grib2 2026-05-02 02:56 756K
20260502T00Z_MSC_RDPS_RelativeHumidity_IsbL-0350_RLatLon0.09_PT059H.grib2 2026-05-02 02:56 780K
20260502T00Z_MSC_RDPS_RelativeHumidity_IsbL-0400_RLatLon0.09_PT059H.grib2 2026-05-02 02:56 791K
20260502T00Z_MSC_RDPS_RelativeHumidity_IsbL-0450_RLatLon0.09_PT059H.grib2 2026-05-02 02:56 793K
20260502T00Z_MSC_RDPS_RelativeHumidity_IsbL-0500_RLatLon0.09_PT059H.grib2 2026-05-02 02:56 794K
20260502T00Z_MSC_RDPS_RelativeHumidity_IsbL-0550_RLatLon0.09_PT059H.grib2 2026-05-02 02:56 812K
20260502T00Z_MSC_RDPS_RelativeHumidity_IsbL-0600_RLatLon0.09_PT059H.grib2 2026-05-02 02:56 836K
20260502T00Z_MSC_RDPS_RelativeHumidity_IsbL-0650_RLatLon0.09_PT059H.grib2 2026-05-02 02:56 849K
20260502T00Z_MSC_RDPS_RelativeHumidity_IsbL-0700_RLatLon0.09_PT059H.grib2 2026-05-02 02:56 870K
20260502T00Z_MSC_RDPS_RelativeHumidity_IsbL-0750_RLatLon0.09_PT059H.grib2 2026-05-02 02:56 915K
20260502T00Z_MSC_RDPS_RelativeHumidity_IsbL-0800_RLatLon0.09_PT059H.grib2 2026-05-02 02:56 1.0M
20260502T00Z_MSC_RDPS_RelativeHumidity_IsbL-0850_RLatLon0.09_PT059H.grib2 2026-05-02 02:56 1.0M
20260502T00Z_MSC_RDPS_RelativeHumidity_IsbL-0875_RLatLon0.09_PT059H.grib2 2026-05-02 02:56 1.1M
20260502T00Z_MSC_RDPS_RelativeHumidity_IsbL-0900_RLatLon0.09_PT059H.grib2 2026-05-02 02:56 1.1M
20260502T00Z_MSC_RDPS_RelativeHumidity_IsbL-0925_RLatLon0.09_PT059H.grib2 2026-05-02 02:56 1.1M
20260502T00Z_MSC_RDPS_RelativeHumidity_IsbL-0950_RLatLon0.09_PT059H.grib2 2026-05-02 02:56 1.1M
20260502T00Z_MSC_RDPS_RelativeHumidity_IsbL-0970_RLatLon0.09_PT059H.grib2 2026-05-02 02:56 1.1M
20260502T00Z_MSC_RDPS_RelativeHumidity_IsbL-0985_RLatLon0.09_PT059H.grib2 2026-05-02 02:56 1.0M
20260502T00Z_MSC_RDPS_RelativeHumidity_IsbL-1000_RLatLon0.09_PT059H.grib2 2026-05-02 02:56 1.0M
20260502T00Z_MSC_RDPS_RelativeHumidity_IsbL-1015_RLatLon0.09_PT059H.grib2 2026-05-02 02:56 1.0M
20260502T00Z_MSC_RDPS_Runoff-Accum_Sfc_RLatLon0.09_PT059H.grib2 2026-05-02 02:56 60K
20260502T00Z_MSC_RDPS_SWEATIndex_Sfc_RLatLon0.09_PT059H.grib2 2026-05-02 02:56 2.6M
20260502T00Z_MSC_RDPS_SeeingIndex_EAtm_RLatLon0.09_PT059H.grib2 2026-05-02 02:56 1.0M
20260502T00Z_MSC_RDPS_SensibleHeatNetFlux_Sfc_RLatLon0.09_PT059H.grib2 2026-05-02 02:56 304K
20260502T00Z_MSC_RDPS_ShowalterIndex_IsbL-0500_RLatLon0.09_PT059H.grib2 2026-05-02 02:56 2.6M
20260502T00Z_MSC_RDPS_SkyTransparencyIndex_EAtm_RLatLon0.09_PT059H.grib2 2026-05-02 02:56 716K
20260502T00Z_MSC_RDPS_Snow-Accum1h_Sfc_RLatLon0.09_PT059H.grib2 2026-05-02 02:56 543K
20260502T00Z_MSC_RDPS_Snow-Accum_Sfc_RLatLon0.09_PT059H.grib2 2026-05-02 02:56 743K
20260502T00Z_MSC_RDPS_SnowDensity_Sfc_RLatLon0.09_PT059H.grib2 2026-05-02 02:56 172K
20260502T00Z_MSC_RDPS_SnowDepth_Sfc_RLatLon0.09_PT059H.grib2 2026-05-02 02:56 653K
20260502T00Z_MSC_RDPS_SoilTemp_DBS-0to10cm_RLatLon0.09_PT059H.grib2 2026-05-02 02:56 243K
20260502T00Z_MSC_RDPS_SoilTemp_Sfc_RLatLon0.09_PT059H.grib2 2026-05-02 02:56 272K
20260502T00Z_MSC_RDPS_SoilVolumetricIceContent_Sfc_RLatLon0.09_PT059H.grib2 2026-05-02 02:56 155K
20260502T00Z_MSC_RDPS_SoilVolumetricWaterContent_DBS-0to10cm_RLatLon0.09_PT059H.grib2 2026-05-02 02:56 275K
20260502T00Z_MSC_RDPS_SoilVolumetricWaterContent_DBS-0to1cm_RLatLon0.09_PT059H.grib2 2026-05-02 02:56 343K
20260502T00Z_MSC_RDPS_SpecificHumidity_AGL-120m_RLatLon0.09_PT059H.grib2 2026-05-02 02:56 495K
20260502T00Z_MSC_RDPS_SpecificHumidity_AGL-2m_RLatLon0.09_PT059H.grib2 2026-05-02 02:56 664K
20260502T00Z_MSC_RDPS_SpecificHumidity_AGL-40m_RLatLon0.09_PT059H.grib2 2026-05-02 02:56 502K
20260502T00Z_MSC_RDPS_SpecificHumidity_AGL-80m_RLatLon0.09_PT059H.grib2 2026-05-02 02:56 497K
20260502T00Z_MSC_RDPS_SpecificHumidity_IsbL-0001_RLatLon0.09_PT059H.grib2 2026-05-02 02:56 359K
20260502T00Z_MSC_RDPS_SpecificHumidity_IsbL-0005_RLatLon0.09_PT059H.grib2 2026-05-02 02:56 367K
20260502T00Z_MSC_RDPS_SpecificHumidity_IsbL-0010_RLatLon0.09_PT059H.grib2 2026-05-02 02:56 400K
20260502T00Z_MSC_RDPS_SpecificHumidity_IsbL-0020_RLatLon0.09_PT059H.grib2 2026-05-02 02:56 373K
20260502T00Z_MSC_RDPS_SpecificHumidity_IsbL-0030_RLatLon0.09_PT059H.grib2 2026-05-02 02:56 371K
20260502T00Z_MSC_RDPS_SpecificHumidity_IsbL-0050_RLatLon0.09_PT059H.grib2 2026-05-02 02:56 476K
20260502T00Z_MSC_RDPS_SpecificHumidity_IsbL-0100_RLatLon0.09_PT059H.grib2 2026-05-02 02:56 420K
20260502T00Z_MSC_RDPS_SpecificHumidity_IsbL-0150_RLatLon0.09_PT059H.grib2 2026-05-02 02:56 443K
20260502T00Z_MSC_RDPS_SpecificHumidity_IsbL-0175_RLatLon0.09_PT059H.grib2 2026-05-02 02:56 429K
20260502T00Z_MSC_RDPS_SpecificHumidity_IsbL-0200_RLatLon0.09_PT059H.grib2 2026-05-02 02:56 447K
20260502T00Z_MSC_RDPS_SpecificHumidity_IsbL-0225_RLatLon0.09_PT059H.grib2 2026-05-02 02:56 454K
20260502T00Z_MSC_RDPS_SpecificHumidity_IsbL-0250_RLatLon0.09_PT059H.grib2 2026-05-02 02:56 562K
20260502T00Z_MSC_RDPS_SpecificHumidity_IsbL-0275_RLatLon0.09_PT059H.grib2 2026-05-02 02:56 478K
20260502T00Z_MSC_RDPS_SpecificHumidity_IsbL-0300_RLatLon0.09_PT059H.grib2 2026-05-02 02:56 452K
20260502T00Z_MSC_RDPS_SpecificHumidity_IsbL-0350_RLatLon0.09_PT059H.grib2 2026-05-02 02:56 447K
20260502T00Z_MSC_RDPS_SpecificHumidity_IsbL-0400_RLatLon0.09_PT059H.grib2 2026-05-02 02:56 525K
20260502T00Z_MSC_RDPS_SpecificHumidity_IsbL-0450_RLatLon0.09_PT059H.grib2 2026-05-02 02:56 572K
20260502T00Z_MSC_RDPS_SpecificHumidity_IsbL-0500_RLatLon0.09_PT059H.grib2 2026-05-02 02:56 503K
20260502T00Z_MSC_RDPS_SpecificHumidity_IsbL-0550_RLatLon0.09_PT059H.grib2 2026-05-02 02:56 576K
20260502T00Z_MSC_RDPS_SpecificHumidity_IsbL-0600_RLatLon0.09_PT059H.grib2 2026-05-02 02:56 630K
20260502T00Z_MSC_RDPS_SpecificHumidity_IsbL-0650_RLatLon0.09_PT059H.grib2 2026-05-02 02:56 548K
20260502T00Z_MSC_RDPS_SpecificHumidity_IsbL-0700_RLatLon0.09_PT059H.grib2 2026-05-02 02:56 589K
20260502T00Z_MSC_RDPS_SpecificHumidity_IsbL-0750_RLatLon0.09_PT059H.grib2 2026-05-02 02:56 640K
20260502T00Z_MSC_RDPS_SpecificHumidity_IsbL-0800_RLatLon0.09_PT059H.grib2 2026-05-02 02:56 718K
20260502T00Z_MSC_RDPS_SpecificHumidity_IsbL-0850_RLatLon0.09_PT059H.grib2 2026-05-02 02:56 815K
20260502T00Z_MSC_RDPS_SpecificHumidity_IsbL-0875_RLatLon0.09_PT059H.grib2 2026-05-02 02:56 839K
20260502T00Z_MSC_RDPS_SpecificHumidity_IsbL-0900_RLatLon0.09_PT059H.grib2 2026-05-02 02:56 845K
20260502T00Z_MSC_RDPS_SpecificHumidity_IsbL-0925_RLatLon0.09_PT059H.grib2 2026-05-02 02:56 841K
20260502T00Z_MSC_RDPS_SpecificHumidity_IsbL-0950_RLatLon0.09_PT059H.grib2 2026-05-02 02:56 843K
20260502T00Z_MSC_RDPS_SpecificHumidity_IsbL-0970_RLatLon0.09_PT059H.grib2 2026-05-02 02:56 697K
20260502T00Z_MSC_RDPS_SpecificHumidity_IsbL-0985_RLatLon0.09_PT059H.grib2 2026-05-02 02:56 689K
20260502T00Z_MSC_RDPS_SpecificHumidity_IsbL-1000_RLatLon0.09_PT059H.grib2 2026-05-02 02:56 684K
20260502T00Z_MSC_RDPS_SpecificHumidity_IsbL-1015_RLatLon0.09_PT059H.grib2 2026-05-02 02:56 677K
20260502T00Z_MSC_RDPS_SpecificHumidity_Sfc_RLatLon0.09_PT059H.grib2 2026-05-02 02:56 296K
20260502T00Z_MSC_RDPS_StormRelativeHelicity_EtaL-10000_RLatLon0.09_PT059H.grib2 2026-05-02 02:56 1.1M
20260502T00Z_MSC_RDPS_StormSeverityIndex_EtaL-10000_RLatLon0.09_PT059H.grib2 2026-05-02 02:56 1.2M
20260502T00Z_MSC_RDPS_Thickness_IsbL-0850to0700_RLatLon0.09_PT059H.grib2 2026-05-02 02:56 178K
20260502T00Z_MSC_RDPS_Thickness_IsbL-1000to0500_RLatLon0.09_PT059H.grib2 2026-05-02 02:56 196K
20260502T00Z_MSC_RDPS_Thickness_IsbL-1000to0850_RLatLon0.09_PT059H.grib2 2026-05-02 02:56 264K
20260502T00Z_MSC_RDPS_TotalCloudCover_Sfc_RLatLon0.09_PT059H.grib2 2026-05-02 02:56 675K
20260502T00Z_MSC_RDPS_TotalTotalsIndex_Sfc_RLatLon0.09_PT059H.grib2 2026-05-02 02:56 2.5M
20260502T00Z_MSC_RDPS_UVIndex-ClearSky_Sfc_RLatLon0.09_PT059H.grib2 2026-05-02 02:56 118K
20260502T00Z_MSC_RDPS_UVIndex_Sfc_RLatLon0.09_PT059H.grib2 2026-05-02 02:56 278K
20260502T00Z_MSC_RDPS_UpwardLongwaveRadiationFlux_NTAtm_RLatLon0.09_PT059H.grib2 2026-05-02 02:56 491K
20260502T00Z_MSC_RDPS_UpwardShortwaveRadiationFlux_NTAtm_RLatLon0.09_PT059H.grib2 2026-05-02 02:56 258K
20260502T00Z_MSC_RDPS_VerticalVelocity_IsbL-0250_RLatLon0.09_PT059H.grib2 2026-05-02 02:56 562K
20260502T00Z_MSC_RDPS_VerticalVelocity_IsbL-0500_RLatLon0.09_PT059H.grib2 2026-05-02 02:56 555K
20260502T00Z_MSC_RDPS_VerticalVelocity_IsbL-0700_RLatLon0.09_PT059H.grib2 2026-05-02 02:56 606K
20260502T00Z_MSC_RDPS_VerticalVelocity_IsbL-0850_RLatLon0.09_PT059H.grib2 2026-05-02 02:56 715K
20260502T00Z_MSC_RDPS_VerticalWindShear_EtaL-6500_RLatLon0.09_PT059H.grib2 2026-05-02 02:56 1.2M
20260502T00Z_MSC_RDPS_WindChill_Sfc_RLatLon0.09_PT059H.grib2 2026-05-02 02:56 1.2M
20260502T00Z_MSC_RDPS_WindDir_AGL-10m_RLatLon0.09_PT059H.grib2 2026-05-02 02:56 1.0M
20260502T00Z_MSC_RDPS_WindDir_AGL-120m_RLatLon0.09_PT059H.grib2 2026-05-02 02:56 613K
20260502T00Z_MSC_RDPS_WindDir_AGL-40m_RLatLon0.09_PT059H.grib2 2026-05-02 02:56 647K
20260502T00Z_MSC_RDPS_WindDir_AGL-80m_RLatLon0.09_PT059H.grib2 2026-05-02 02:56 626K
20260502T00Z_MSC_RDPS_WindDir_IsbL-0001_RLatLon0.09_PT059H.grib2 2026-05-02 02:56 308K
20260502T00Z_MSC_RDPS_WindDir_IsbL-0005_RLatLon0.09_PT059H.grib2 2026-05-02 02:56 389K
20260502T00Z_MSC_RDPS_WindDir_IsbL-0010_RLatLon0.09_PT059H.grib2 2026-05-02 02:56 398K
20260502T00Z_MSC_RDPS_WindDir_IsbL-0020_RLatLon0.09_PT059H.grib2 2026-05-02 02:56 431K
20260502T00Z_MSC_RDPS_WindDir_IsbL-0030_RLatLon0.09_PT059H.grib2 2026-05-02 02:56 427K
20260502T00Z_MSC_RDPS_WindDir_IsbL-0050_RLatLon0.09_PT059H.grib2 2026-05-02 02:56 427K
20260502T00Z_MSC_RDPS_WindDir_IsbL-0100_RLatLon0.09_PT059H.grib2 2026-05-02 02:56 402K
20260502T00Z_MSC_RDPS_WindDir_IsbL-0150_RLatLon0.09_PT059H.grib2 2026-05-02 02:56 414K
20260502T00Z_MSC_RDPS_WindDir_IsbL-0175_RLatLon0.09_PT059H.grib2 2026-05-02 02:56 438K
20260502T00Z_MSC_RDPS_WindDir_IsbL-0200_RLatLon0.09_PT059H.grib2 2026-05-02 02:56 449K
20260502T00Z_MSC_RDPS_WindDir_IsbL-0225_RLatLon0.09_PT059H.grib2 2026-05-02 02:56 453K
20260502T00Z_MSC_RDPS_WindDir_IsbL-0250_RLatLon0.09_PT059H.grib2 2026-05-02 02:56 451K
20260502T00Z_MSC_RDPS_WindDir_IsbL-0275_RLatLon0.09_PT059H.grib2 2026-05-02 02:56 471K
20260502T00Z_MSC_RDPS_WindDir_IsbL-0300_RLatLon0.09_PT059H.grib2 2026-05-02 02:56 466K
20260502T00Z_MSC_RDPS_WindDir_IsbL-0350_RLatLon0.09_PT059H.grib2 2026-05-02 02:56 496K
20260502T00Z_MSC_RDPS_WindDir_IsbL-0400_RLatLon0.09_PT059H.grib2 2026-05-02 02:56 517K
20260502T00Z_MSC_RDPS_WindDir_IsbL-0450_RLatLon0.09_PT059H.grib2 2026-05-02 02:56 528K
20260502T00Z_MSC_RDPS_WindDir_IsbL-0500_RLatLon0.09_PT059H.grib2 2026-05-02 02:56 533K
20260502T00Z_MSC_RDPS_WindDir_IsbL-0550_RLatLon0.09_PT059H.grib2 2026-05-02 02:56 548K
20260502T00Z_MSC_RDPS_WindDir_IsbL-0600_RLatLon0.09_PT059H.grib2 2026-05-02 02:56 576K
20260502T00Z_MSC_RDPS_WindDir_IsbL-0650_RLatLon0.09_PT059H.grib2 2026-05-02 02:56 608K
20260502T00Z_MSC_RDPS_WindDir_IsbL-0700_RLatLon0.09_PT059H.grib2 2026-05-02 02:56 650K
20260502T00Z_MSC_RDPS_WindDir_IsbL-0750_RLatLon0.09_PT059H.grib2 2026-05-02 02:56 698K
20260502T00Z_MSC_RDPS_WindDir_IsbL-0800_RLatLon0.09_PT059H.grib2 2026-05-02 02:56 777K
20260502T00Z_MSC_RDPS_WindDir_IsbL-0850_RLatLon0.09_PT059H.grib2 2026-05-02 02:56 874K
20260502T00Z_MSC_RDPS_WindDir_IsbL-0875_RLatLon0.09_PT059H.grib2 2026-05-02 02:56 905K
20260502T00Z_MSC_RDPS_WindDir_IsbL-0900_RLatLon0.09_PT059H.grib2 2026-05-02 02:56 916K
20260502T00Z_MSC_RDPS_WindDir_IsbL-0925_RLatLon0.09_PT059H.grib2 2026-05-02 02:56 924K
20260502T00Z_MSC_RDPS_WindDir_IsbL-0950_RLatLon0.09_PT059H.grib2 2026-05-02 02:56 924K
20260502T00Z_MSC_RDPS_WindDir_IsbL-0970_RLatLon0.09_PT059H.grib2 2026-05-02 02:56 929K
20260502T00Z_MSC_RDPS_WindDir_IsbL-0985_RLatLon0.09_PT059H.grib2 2026-05-02 02:56 939K
20260502T00Z_MSC_RDPS_WindDir_IsbL-1000_RLatLon0.09_PT059H.grib2 2026-05-02 02:56 958K
20260502T00Z_MSC_RDPS_WindDir_IsbL-1015_RLatLon0.09_PT059H.grib2 2026-05-02 02:56 1.0M
20260502T00Z_MSC_RDPS_WindGust-Max_AGL-10m_RLatLon0.09_PT059H.grib2 2026-05-02 02:56 1.0M
20260502T00Z_MSC_RDPS_WindGust-Min_AGL-10m_RLatLon0.09_PT059H.grib2 2026-05-02 02:56 1.0M
20260502T00Z_MSC_RDPS_WindGust_AGL-10m_RLatLon0.09_PT059H.grib2 2026-05-02 02:56 1.0M
20260502T00Z_MSC_RDPS_WindSpeed_AGL-10m_RLatLon0.09_PT059H.grib2 2026-05-02 02:56 855K
20260502T00Z_MSC_RDPS_WindSpeed_AGL-120m_RLatLon0.09_PT059H.grib2 2026-05-02 02:56 551K
20260502T00Z_MSC_RDPS_WindSpeed_AGL-40m_RLatLon0.09_PT059H.grib2 2026-05-02 02:56 685K
20260502T00Z_MSC_RDPS_WindSpeed_AGL-80m_RLatLon0.09_PT059H.grib2 2026-05-02 02:56 552K
20260502T00Z_MSC_RDPS_WindSpeed_IsbL-0001_RLatLon0.09_PT059H.grib2 2026-05-02 02:56 255K
20260502T00Z_MSC_RDPS_WindSpeed_IsbL-0005_RLatLon0.09_PT059H.grib2 2026-05-02 02:56 388K
20260502T00Z_MSC_RDPS_WindSpeed_IsbL-0010_RLatLon0.09_PT059H.grib2 2026-05-02 02:56 369K
20260502T00Z_MSC_RDPS_WindSpeed_IsbL-0020_RLatLon0.09_PT059H.grib2 2026-05-02 02:56 426K
20260502T00Z_MSC_RDPS_WindSpeed_IsbL-0030_RLatLon0.09_PT059H.grib2 2026-05-02 02:56 327K
20260502T00Z_MSC_RDPS_WindSpeed_IsbL-0050_RLatLon0.09_PT059H.grib2 2026-05-02 02:56 357K
20260502T00Z_MSC_RDPS_WindSpeed_IsbL-0100_RLatLon0.09_PT059H.grib2 2026-05-02 02:56 445K
20260502T00Z_MSC_RDPS_WindSpeed_IsbL-0150_RLatLon0.09_PT059H.grib2 2026-05-02 02:56 385K
20260502T00Z_MSC_RDPS_WindSpeed_IsbL-0175_RLatLon0.09_PT059H.grib2 2026-05-02 02:56 429K
20260502T00Z_MSC_RDPS_WindSpeed_IsbL-0200_RLatLon0.09_PT059H.grib2 2026-05-02 02:56 442K
20260502T00Z_MSC_RDPS_WindSpeed_IsbL-0225_RLatLon0.09_PT059H.grib2 2026-05-02 02:56 451K
20260502T00Z_MSC_RDPS_WindSpeed_IsbL-0250_RLatLon0.09_PT059H.grib2 2026-05-02 02:56 454K
20260502T00Z_MSC_RDPS_WindSpeed_IsbL-0275_RLatLon0.09_PT059H.grib2 2026-05-02 02:56 471K
20260502T00Z_MSC_RDPS_WindSpeed_IsbL-0300_RLatLon0.09_PT059H.grib2 2026-05-02 02:56 468K
20260502T00Z_MSC_RDPS_WindSpeed_IsbL-0350_RLatLon0.09_PT059H.grib2 2026-05-02 02:56 481K
20260502T00Z_MSC_RDPS_WindSpeed_IsbL-0400_RLatLon0.09_PT059H.grib2 2026-05-02 02:56 485K
20260502T00Z_MSC_RDPS_WindSpeed_IsbL-0450_RLatLon0.09_PT059H.grib2 2026-05-02 02:56 470K
20260502T00Z_MSC_RDPS_WindSpeed_IsbL-0500_RLatLon0.09_PT059H.grib2 2026-05-02 02:56 468K
20260502T00Z_MSC_RDPS_WindSpeed_IsbL-0550_RLatLon0.09_PT059H.grib2 2026-05-02 02:56 586K
20260502T00Z_MSC_RDPS_WindSpeed_IsbL-0600_RLatLon0.09_PT059H.grib2 2026-05-02 02:56 593K
20260502T00Z_MSC_RDPS_WindSpeed_IsbL-0650_RLatLon0.09_PT059H.grib2 2026-05-02 02:56 612K
20260502T00Z_MSC_RDPS_WindSpeed_IsbL-0700_RLatLon0.09_PT059H.grib2 2026-05-02 02:56 636K
20260502T00Z_MSC_RDPS_WindSpeed_IsbL-0750_RLatLon0.09_PT059H.grib2 2026-05-02 02:56 711K
20260502T00Z_MSC_RDPS_WindSpeed_IsbL-0800_RLatLon0.09_PT059H.grib2 2026-05-02 02:56 767K
20260502T00Z_MSC_RDPS_WindSpeed_IsbL-0850_RLatLon0.09_PT059H.grib2 2026-05-02 02:56 835K
20260502T00Z_MSC_RDPS_WindSpeed_IsbL-0875_RLatLon0.09_PT059H.grib2 2026-05-02 02:56 857K
20260502T00Z_MSC_RDPS_WindSpeed_IsbL-0900_RLatLon0.09_PT059H.grib2 2026-05-02 02:56 868K
20260502T00Z_MSC_RDPS_WindSpeed_IsbL-0925_RLatLon0.09_PT059H.grib2 2026-05-02 02:56 879K
20260502T00Z_MSC_RDPS_WindSpeed_IsbL-0950_RLatLon0.09_PT059H.grib2 2026-05-02 02:56 874K
20260502T00Z_MSC_RDPS_WindSpeed_IsbL-0970_RLatLon0.09_PT059H.grib2 2026-05-02 02:56 872K
20260502T00Z_MSC_RDPS_WindSpeed_IsbL-0985_RLatLon0.09_PT059H.grib2 2026-05-02 02:56 868K
20260502T00Z_MSC_RDPS_WindSpeed_IsbL-1000_RLatLon0.09_PT059H.grib2 2026-05-02 02:56 863K
20260502T00Z_MSC_RDPS_WindSpeed_IsbL-1015_RLatLon0.09_PT059H.grib2 2026-05-02 02:56 854K
20260502T00Z_MSC_RDPS_WindU_AGL-10m_RLatLon0.09_PT059H.grib2 2026-05-02 02:56 439K
20260502T00Z_MSC_RDPS_WindU_AGL-120m_RLatLon0.09_PT059H.grib2 2026-05-02 02:56 546K
20260502T00Z_MSC_RDPS_WindU_AGL-40m_RLatLon0.09_PT059H.grib2 2026-05-02 02:56 548K
20260502T00Z_MSC_RDPS_WindU_AGL-80m_RLatLon0.09_PT059H.grib2 2026-05-02 02:56 547K
20260502T00Z_MSC_RDPS_WindU_IsbL-0001_RLatLon0.09_PT059H.grib2 2026-05-02 02:56 246K
20260502T00Z_MSC_RDPS_WindU_IsbL-0005_RLatLon0.09_PT059H.grib2 2026-05-02 02:56 329K
20260502T00Z_MSC_RDPS_WindU_IsbL-0010_RLatLon0.09_PT059H.grib2 2026-05-02 02:56 299K
20260502T00Z_MSC_RDPS_WindU_IsbL-0020_RLatLon0.09_PT059H.grib2 2026-05-02 02:56 356K
20260502T00Z_MSC_RDPS_WindU_IsbL-0030_RLatLon0.09_PT059H.grib2 2026-05-02 02:56 358K
20260502T00Z_MSC_RDPS_WindU_IsbL-0050_RLatLon0.09_PT059H.grib2 2026-05-02 02:56 386K
20260502T00Z_MSC_RDPS_WindU_IsbL-0100_RLatLon0.09_PT059H.grib2 2026-05-02 02:56 341K
20260502T00Z_MSC_RDPS_WindU_IsbL-0150_RLatLon0.09_PT059H.grib2 2026-05-02 02:56 400K
20260502T00Z_MSC_RDPS_WindU_IsbL-0175_RLatLon0.09_PT059H.grib2 2026-05-02 02:56 326K
20260502T00Z_MSC_RDPS_WindU_IsbL-0200_RLatLon0.09_PT059H.grib2 2026-05-02 02:56 338K
20260502T00Z_MSC_RDPS_WindU_IsbL-0225_RLatLon0.09_PT059H.grib2 2026-05-02 02:56 343K
20260502T00Z_MSC_RDPS_WindU_IsbL-0250_RLatLon0.09_PT059H.grib2 2026-05-02 02:56 344K
20260502T00Z_MSC_RDPS_WindU_IsbL-0275_RLatLon0.09_PT059H.grib2 2026-05-02 02:56 358K
20260502T00Z_MSC_RDPS_WindU_IsbL-0300_RLatLon0.09_PT059H.grib2 2026-05-02 02:56 354K
20260502T00Z_MSC_RDPS_WindU_IsbL-0350_RLatLon0.09_PT059H.grib2 2026-05-02 02:56 469K
20260502T00Z_MSC_RDPS_WindU_IsbL-0400_RLatLon0.09_PT059H.grib2 2026-05-02 02:56 474K
20260502T00Z_MSC_RDPS_WindU_IsbL-0450_RLatLon0.09_PT059H.grib2 2026-05-02 02:56 475K
20260502T00Z_MSC_RDPS_WindU_IsbL-0500_RLatLon0.09_PT059H.grib2 2026-05-02 02:56 473K
20260502T00Z_MSC_RDPS_WindU_IsbL-0550_RLatLon0.09_PT059H.grib2 2026-05-02 02:56 474K
20260502T00Z_MSC_RDPS_WindU_IsbL-0600_RLatLon0.09_PT059H.grib2 2026-05-02 02:56 465K
20260502T00Z_MSC_RDPS_WindU_IsbL-0650_RLatLon0.09_PT059H.grib2 2026-05-02 02:56 483K
20260502T00Z_MSC_RDPS_WindU_IsbL-0700_RLatLon0.09_PT059H.grib2 2026-05-02 02:56 505K
20260502T00Z_MSC_RDPS_WindU_IsbL-0750_RLatLon0.09_PT059H.grib2 2026-05-02 02:56 533K
20260502T00Z_MSC_RDPS_WindU_IsbL-0800_RLatLon0.09_PT059H.grib2 2026-05-02 02:56 581K
20260502T00Z_MSC_RDPS_WindU_IsbL-0850_RLatLon0.09_PT059H.grib2 2026-05-02 02:56 641K
20260502T00Z_MSC_RDPS_WindU_IsbL-0875_RLatLon0.09_PT059H.grib2 2026-05-02 02:56 661K
20260502T00Z_MSC_RDPS_WindU_IsbL-0900_RLatLon0.09_PT059H.grib2 2026-05-02 02:56 668K
20260502T00Z_MSC_RDPS_WindU_IsbL-0925_RLatLon0.09_PT059H.grib2 2026-05-02 02:56 673K
20260502T00Z_MSC_RDPS_WindU_IsbL-0950_RLatLon0.09_PT059H.grib2 2026-05-02 02:56 669K
20260502T00Z_MSC_RDPS_WindU_IsbL-0970_RLatLon0.09_PT059H.grib2 2026-05-02 02:56 806K
20260502T00Z_MSC_RDPS_WindU_IsbL-0985_RLatLon0.09_PT059H.grib2 2026-05-02 02:56 802K
20260502T00Z_MSC_RDPS_WindU_IsbL-1000_RLatLon0.09_PT059H.grib2 2026-05-02 02:56 798K
20260502T00Z_MSC_RDPS_WindU_IsbL-1015_RLatLon0.09_PT059H.grib2 2026-05-02 02:56 837K
20260502T00Z_MSC_RDPS_WindV_AGL-10m_RLatLon0.09_PT059H.grib2 2026-05-02 02:56 440K
20260502T00Z_MSC_RDPS_WindV_AGL-120m_RLatLon0.09_PT059H.grib2 2026-05-02 02:56 545K
20260502T00Z_MSC_RDPS_WindV_AGL-40m_RLatLon0.09_PT059H.grib2 2026-05-02 02:56 549K
20260502T00Z_MSC_RDPS_WindV_AGL-80m_RLatLon0.09_PT059H.grib2 2026-05-02 02:56 547K
20260502T00Z_MSC_RDPS_WindV_IsbL-0001_RLatLon0.09_PT059H.grib2 2026-05-02 02:56 249K
20260502T00Z_MSC_RDPS_WindV_IsbL-0005_RLatLon0.09_PT059H.grib2 2026-05-02 02:56 289K
20260502T00Z_MSC_RDPS_WindV_IsbL-0010_RLatLon0.09_PT059H.grib2 2026-05-02 02:56 301K
20260502T00Z_MSC_RDPS_WindV_IsbL-0020_RLatLon0.09_PT059H.grib2 2026-05-02 02:56 321K
20260502T00Z_MSC_RDPS_WindV_IsbL-0030_RLatLon0.09_PT059H.grib2 2026-05-02 02:56 320K
20260502T00Z_MSC_RDPS_WindV_IsbL-0050_RLatLon0.09_PT059H.grib2 2026-05-02 02:56 351K
20260502T00Z_MSC_RDPS_WindV_IsbL-0100_RLatLon0.09_PT059H.grib2 2026-05-02 02:56 339K
20260502T00Z_MSC_RDPS_WindV_IsbL-0150_RLatLon0.09_PT059H.grib2 2026-05-02 02:56 399K
20260502T00Z_MSC_RDPS_WindV_IsbL-0175_RLatLon0.09_PT059H.grib2 2026-05-02 02:56 325K
20260502T00Z_MSC_RDPS_WindV_IsbL-0200_RLatLon0.09_PT059H.grib2 2026-05-02 02:56 336K
20260502T00Z_MSC_RDPS_WindV_IsbL-0225_RLatLon0.09_PT059H.grib2 2026-05-02 02:56 368K
20260502T00Z_MSC_RDPS_WindV_IsbL-0250_RLatLon0.09_PT059H.grib2 2026-05-02 02:56 369K
20260502T00Z_MSC_RDPS_WindV_IsbL-0275_RLatLon0.09_PT059H.grib2 2026-05-02 02:56 381K
20260502T00Z_MSC_RDPS_WindV_IsbL-0300_RLatLon0.09_PT059H.grib2 2026-05-02 02:56 379K
20260502T00Z_MSC_RDPS_WindV_IsbL-0350_RLatLon0.09_PT059H.grib2 2026-05-02 02:56 387K
20260502T00Z_MSC_RDPS_WindV_IsbL-0400_RLatLon0.09_PT059H.grib2 2026-05-02 02:56 367K
20260502T00Z_MSC_RDPS_WindV_IsbL-0450_RLatLon0.09_PT059H.grib2 2026-05-02 02:56 368K
20260502T00Z_MSC_RDPS_WindV_IsbL-0500_RLatLon0.09_PT059H.grib2 2026-05-02 02:56 471K
20260502T00Z_MSC_RDPS_WindV_IsbL-0550_RLatLon0.09_PT059H.grib2 2026-05-02 02:56 472K
20260502T00Z_MSC_RDPS_WindV_IsbL-0600_RLatLon0.09_PT059H.grib2 2026-05-02 02:56 479K
20260502T00Z_MSC_RDPS_WindV_IsbL-0650_RLatLon0.09_PT059H.grib2 2026-05-02 02:56 495K
20260502T00Z_MSC_RDPS_WindV_IsbL-0700_RLatLon0.09_PT059H.grib2 2026-05-02 02:56 515K
20260502T00Z_MSC_RDPS_WindV_IsbL-0750_RLatLon0.09_PT059H.grib2 2026-05-02 02:56 540K
20260502T00Z_MSC_RDPS_WindV_IsbL-0800_RLatLon0.09_PT059H.grib2 2026-05-02 02:56 587K
20260502T00Z_MSC_RDPS_WindV_IsbL-0850_RLatLon0.09_PT059H.grib2 2026-05-02 02:56 645K
20260502T00Z_MSC_RDPS_WindV_IsbL-0875_RLatLon0.09_PT059H.grib2 2026-05-02 02:56 658K
20260502T00Z_MSC_RDPS_WindV_IsbL-0900_RLatLon0.09_PT059H.grib2 2026-05-02 02:56 666K
20260502T00Z_MSC_RDPS_WindV_IsbL-0925_RLatLon0.09_PT059H.grib2 2026-05-02 02:56 673K
20260502T00Z_MSC_RDPS_WindV_IsbL-0950_RLatLon0.09_PT059H.grib2 2026-05-02 02:56 669K
20260502T00Z_MSC_RDPS_WindV_IsbL-0970_RLatLon0.09_PT059H.grib2 2026-05-02 02:56 666K
20260502T00Z_MSC_RDPS_WindV_IsbL-0985_RLatLon0.09_PT059H.grib2 2026-05-02 02:56 663K
20260502T00Z_MSC_RDPS_WindV_IsbL-1000_RLatLon0.09_PT059H.grib2 2026-05-02 02:56 800K
20260502T00Z_MSC_RDPS_WindV_IsbL-1015_RLatLon0.09_PT059H.grib2 2026-05-02 02:56 793K